Weather in Solontsy

Russia / Krasnoyarsk Krai     56°04′07″N   92°50′54″E
temp.,
°C
wind,
m/s
gust,
m/s
humid.,
%
clouds,
%
prec.,
mm/h
press.,
hPa
HPBL,
m
14 may, fri
fri1401:00+7s22514 0.0 101415
04:00+6s2249100 0.0 101320
07:00+9ssw234459 0.0 1012119
10:00+16wsw4728100 0.1 10101216
13:00+10nw81178100 1.1 1013891
16:00+10nw797388 1.3 10141179
19:00+7nnw487021 1.6 10171141
22:00+4sw22805 0.0 101938
15 may, sat
sat1501:00+4sw2381100 0.0 102060
04:00+4sw367394 0.0 1019147
07:00+8wsw6135399 0.0 1018948
10:00+12wsw81644100 0.0 10161318
13:00+14wsw10164836 0.5 10151177
16:00+14wsw91554100 0.0 10151030
19:00+15wsw81451100 0.0 10151155
22:00+13sw7165599 0.0 1013930
16 may, sun
sun1601:00+12wsw71681100 0.9 10131025
04:00+11w41088100 0.4 1013916
07:00+9ne1192100 0.4 1015211
10:00+9e1291100 0.3 1014211
13:00+11se1489100 0.9 1011283
16:00+12nnw3784100 4.3 1007607
19:00+7nne2597100 16.1 1009346
22:00+6n2593100 0.0 1012424
17 may, mon
mon1701:00+5nnw2391100 0.1 1014332
04:00+4nw119319 0.0 101414
07:00+5nw11785 0.0 1016284
10:00+9nnw23588 0.0 1015970
13:00+12nnw344558 0.0 10141668
16:00+13nw454492 0.0 10141785
19:00+11nw3551100 0.0 1014361
22:00+8wsw116466 0.0 101517
18 may, tue
tue1801:00+7ssw2267100 0.0 101451
04:00+7s2373100 0.0 101196
07:00+7s2692100 2.0 1008262
10:00+8s31092100 3.6 1004675
13:00+9wsw1197100 12.2 100294
16:00+9n1298100 4.0 1001107
19:00+7n3697100 7.1 1006452
22:00+5n2495100 0.0 1007440